sat.trackr.live / text

‹ back to catalog

STARLINK-33713

NORAD 63479 · 2025-070V

PAYLOAD ACTIVE UNKNOWN

§ Identity

Operator
Country
US
Launch date
2025-04-06
Launch site
AFETR
Launch vehicle
Mass (kg)
RCS (m²)

Purposes: comms

External: N2YO · Heavens-Above · Gunter

§ Orbital elements

Epoch: 2026-05-25T03:45:39.348288Z

Period
94.27 min
Inclination
42.9951°
Eccentricity
0.0000907
Mean motion
15.27590243 rev/d
Perigee alt
482.4 km
Apogee alt
483.6 km
Semi-major
6,861.2 km
B*
3.8250e-4
RAAN
184.2536°
Arg perigee
294.4931°
Mean anomaly
65.5826°
Rev number
6,471

§ Raw data

STARLINK-337131 63479U 25070V   26145.15670542  .00010281  00000+0  38250-3 0  99932 63479  42.9951 184.2536 0000907 294.4931  65.5826 15.27590243 64716

JSON: /api/v1/satellites/63479 · /tle

For live sub-satellite position, see the globe view (requires WebGL).

§ Visibility from observer

Set your observer location to see the next 7 days of passes ≥ 10°. The values pass through the URL so the page stays shareable.

No JS? Fill the form by hand. The geolocation button needs JavaScript.